GW5239 Weather Reports


time (UTC)temp
C
wind
direction
speed
KPH
gust
KPH
rain 1hr
cm
rain 24hr
cm
rain mn
cm
humidity
%
barometer
mb
20260510063030 11 5 3.2 9.7 0.00 0.00 0.00 83 1014.5
20260510061506 10 327 3.2 9.7 0.00 0.00 0.00 83 1014.4
20260510060015 10 330 3.2 8.0 0.00 0.00 0.00 84 1014.4
20260510054514 10 18 1.6 6.4 0.00 0.00 0.00 84 1014.2
20260510053017 10 344 0.0 9.7 0.00 0.00 0.00 84 1014.4
20260510051524 10 39 1.6 9.7 0.00 0.00 0.00 84 1014.4
20260510050006 10 9 1.6 8.0 0.00 0.00 0.00 84 1014.4
20260510044508 10 26 0.0 6.4 0.00 0.00 0.00 85 1014.5
20260510043012 9 9 0.0 4.8 0.00 0.00 0.00 85 1014.5
20260510041519 9 55 1.6 4.8 0.00 0.00 0.00 84 1014.4
20260510040028 10 331 0.0 3.2 0.00 0.00 0.00 84 1014.5
20260510034532 10 5 1.6 9.7 0.00 0.00 0.00 84 1014.5
20260510033012 10 17 0.0 6.4 0.00 0.00 0.00 84 1014.3
20260510031519 9 347 0.0 8.0 0.00 0.00 0.00 84 1014.4
20260510030020 9 9 0.0 3.2 0.00 0.00 0.00 84 1014.7
20260510024526 10 334 0.0 3.2 0.00 0.00 0.00 83 1014.9
20260510023028 10 355 0.0 1.6 0.00 0.00 0.00 82 1014.8
20260510021523 10 355 0.0 1.6 0.00 0.00 0.00 81 1014.9
20260510020016 10 48 0.0 3.2 0.00 0.00 0.00 81 1014.8
20260510014519 10 355 0.0 3.2 0.00 0.00 0.00 81 1014.8
20260510013023 10 336 0.0 4.8 0.00 0.00 0.00 81 1014.9
20260510011508 10 5 0.0 3.2 0.00 0.00 0.00 81 1015.2
20260510010010 10 20 0.0 3.2 0.00 0.00 0.00 80 1015.3
20260510004518 10 336 0.0 1.6 0.00 0.00 0.00 80 1015.5
20260510003004 11 350 0.0 3.2 0.00 0.00 0.00 79 1015.6
20260510001505 11 5 0.0 1.6 0.00 0.00 0.00 78 1015.7
20260510000010 11 348 0.0 3.2 0.00 0.00 0.00 78 1015.7
20260509234515 11 352 0.0 4.8 0.00 0.00 0.00 77 1015.7
20260509233020 11 355 0.0 1.6 0.00 0.00 0.00 76 1015.8
20260509231503 12 5 0.0 3.2 0.00 0.00 0.00 75 1015.7
20260509230005 12 321 0.0 4.8 0.00 0.00 0.00 75 1015.8
20260509224509 12 67 0.0 6.4 0.00 0.00 0.00 73 1015.9
20260509223014 12 340 0.0 1.6 0.00 0.00 0.00 74 1015.7
20260509221522 12 5 0.0 4.8 0.00 0.00 0.00 74 1015.8
20260509220023 12 327 0.0 4.8 0.00 0.00 0.00 74 1015.9
20260509214507 12 342 0.0 4.8 0.00 0.00 0.00 75 1015.8
20260509213011 12 9 0.0 3.2 0.00 0.00 0.00 76 1015.9
20260509211517 12 5 0.0 1.6 0.00 0.00 0.00 76 1015.9
20260509210029 12 5 0.0 1.6 0.00 0.00 0.00 76 1015.9
20260509204525 12 5 0.0 1.6 0.00 0.00 0.00 75 1015.9
20260509203009 13 5 0.0 1.6 0.00 0.00 0.00 73 1015.9
20260509201510 13 5 0.0 1.6 0.00 0.00 0.00 72 1015.9
20260509200018 14 22 0.0 0.0 0.00 0.00 0.00 68 1015.7
20260509194521 15 22 0.0 1.6 0.00 0.00 0.00 66 1015.8
20260509193028 16 14 0.0 1.6 0.00 0.00 0.00 63 1015.7
20260509191508 17 11 0.0 1.6 0.00 0.00 0.00 60 1015.8
20260509190016 17 11 0.0 3.2 0.00 0.00 0.00 58 1015.7
20260509184523 18 27 0.0 6.4 0.00 0.00 0.00 54 1015.6
20260509183023 19 355 0.0 4.8 0.00 0.00 0.00 51 1015.6
20260509181525 20 22 1.6 4.8 0.00 0.00 0.00 49 1015.5
20260509180029 20 55 1.6 6.4 0.00 0.00 0.00 48 1015.6
20260509174514 21 284 0.0 4.8 0.00 0.00 0.00 50 1015.5
20260509173020 21 360 0.0 6.4 0.00 0.00 0.00 47 1015.7
20260509171535 20 9 1.6 6.4 0.00 0.00 0.00 49 1015.5
20260509170031 20 48 1.6 6.4 0.00 0.00 0.00 49 1015.5
20260509164529 21 37 0.0 8.0 0.00 0.00 0.00 46 1015.6
20260509163024 21 355 0.0 6.4 0.00 0.00 0.00 49 1015.5
20260509161504 21 355 3.2 8.0 0.00 0.00 0.00 47 1015.5
20260509160003 22 329 1.6 8.0 0.00 0.00 0.00 47 1015.5
20260509154504 21 13 3.2 9.7 0.00 0.00 0.00 48 1015.5
20260509153003 21 18 1.6 11.3 0.00 0.00 0.00 48 1015.7
20260509151504 21 346 1.6 9.7 0.00 0.00 0.00 50 1015.7
20260509150010 22 340 3.2 12.9 0.00 0.00 0.00 49 1015.9
20260509144504 21 17 1.6 9.7 0.00 0.00 0.00 50 1015.9
20260509143004 21 360 3.2 8.0 0.00 0.00 0.00 50 1016.0
20260509141508 21 84 1.6 12.9 0.00 0.00 0.00 53 1016.1
20260509140004 21 29 1.6 6.4 0.00 0.00 0.00 53 1016.2
20260509134508 20 12 1.6 8.0 0.00 0.00 0.00 50 1016.3
20260509133003 21 111 0.0 8.0 0.00 0.00 0.00 53 1016.6
20260509131509 21 75 1.6 9.7 0.00 0.00 0.00 49 1016.6
20260509130013 21 311 1.6 12.9 0.00 0.00 0.00 53 1016.7
20260509124508 20 320 1.6 8.0 0.00 0.00 0.00 52 1016.8
20260509123004 20 31 3.2 11.3 0.00 0.00 0.00 52 1016.9
20260509121515 21 28 4.8 12.9 0.00 0.00 0.00 51 1017.1
20260509120008 21 85 1.6 6.4 0.00 0.00 0.00 50 1017.2
20260509114512 20 80 0.0 4.8 0.00 0.00 0.00 49 1017.5
20260509113012 21 58 3.2 9.7 0.00 0.00 0.00 45 1017.6
20260509111505 20 154 1.6 6.4 0.00 0.00 0.00 51 1017.6
20260509110012 20 62 1.6 4.8 0.00 0.00 0.00 50 1017.7
20260509104512 20 111 1.6 8.0 0.00 0.00 0.00 50 1017.8
20260509103012 18 198 1.6 11.3 0.00 0.00 0.00 54 1017.8
20260509101517 18 63 0.0 6.4 0.00 0.00 0.00 55 1017.8
20260509100016 17 46 0.0 11.3 0.00 0.00 0.00 54 1017.9
20260509094516 17 91 0.0 6.4 0.00 0.00 0.00 54 1018.0
20260509093012 17 55 0.0 14.5 0.00 0.00 0.00 55 1018.0
20260509091520 17 118 1.6 8.0 0.00 0.00 0.00 60 1018.0
20260509090017 17 64 0.0 8.0 0.00 0.00 0.00 61 1018.1
20260509084512 16 146 0.0 6.4 0.00 0.00 0.00 63 1018.2
20260509083018 16 344 1.6 4.8 0.00 0.00 0.00 65 1018.2
20260509081516 15 80 1.6 4.8 0.00 0.00 0.00 66 1018.3
20260509080019 15 46 1.6 4.8 0.00 0.00 0.00 67 1018.4
20260509074519 15 76 0.0 4.8 0.00 0.00 0.00 67 1018.4
20260509073020 15 351 0.0 3.2 0.00 0.00 0.00 69 1018.4
20260509071512 14 26 0.0 3.2 0.00 0.00 0.00 71 1018.4
20260509070004 14 30 0.0 4.8 0.00 0.00 0.00 71 1018.6
20260509064503 13 50 0.0 4.8 0.00 0.00 0.00 75 1018.5